Regional Weather Roundup
Issued by NWS

Home | Current Version | Previous Version | Graphics & Text | Print | Product List | Glossary On
Versions: 1 2 3 4 5 6 7 8 9 10 11 12 13 14 15 16 17 18 19 20 21 22 23 24 25 26 27 28 29 30 31 32 33 34 35 36 37 38 39 40 41 42 43 44 45 46 47 48 49 50
000
ASUS45 KPSR 221510
RWRAZ

ARIZONA REGIONAL HOURLY WEATHER ROUNDUP
NATIONAL WEATHER SERVICE PHOENIX AZ
800 AM MST MON DEC 22 2014

NOTE: FAIR INDICATES FEW OR NO CLOUDS BELOW 12,000 FEET WITH NO
SIGNIFICANT WEATHER AND/OR OBSTRUCTIONS TO VISIBILITY.

AZZ001>003-036-221600-
NORTHWEST ARIZONA

CITY           SKY/WX    TMP DP  RH WIND       PRES   REMARKS
BULLHEAD CITY  SUNNY     45  43  93 S5        30.07R
KINGMAN        SUNNY     35  32  88 CALM      30.09R
$$

AZZ004>008-015-016-018-221600-
NORTH CENTRAL ARIZONA

CITY           SKY/WX    TMP DP  RH WIND       PRES   REMARKS
GRAND CANYON   SUNNY     30  28  92 NE6       30.09R WCI  24
PRESCOTT       SUNNY     42  32  67 W8        30.07F
FLAGSTAFF      SUNNY     41  30  65 VRB5      30.07F
PAYSON         SUNNY     37  34  87 CALM      30.05F
PAGE           SUNNY     37  31  78 CALM      29.98S
$$

AZZ009>014-017-221600-
NORTHEAST ARIZONA

CITY           SKY/WX    TMP DP  RH WIND       PRES   REMARKS
WINSLOW        SUNNY     30  29  96 SE5       30.02F WCI  25
SAINT JOHNS    MOSUNNY   32  29  88 NE6       30.02S WCI  26
WINDOW ROCK    SUNNY     29  24  82 E3        30.01S
SHOW LOW       MOSUNNY   32  27  80 CALM      30.07S
$$

AZZ023-221600-
GREATER PHOENIX AREA

CITY           SKY/WX    TMP DP  RH WIND       PRES   REMARKS
PHOENIX        PTSUNNY   48  42  80 E7        30.01F
BUCKEYE          N/A     39  39 100 CALM      30.03S
GLENDALE       PTSUNNY   45  45 100 CALM      30.04S
LUKE AFB       SUNNY     43  41  93 N5        30.02S
DEER VALLEY    MOSUNNY   45  40  82 N3        30.02S
SCOTTSDALE     MOSUNNY   46  40  79 CALM      30.03F
MESA-FALCON    MOSUNNY   45  43  93 NE6       30.01F
MESA-GATEWAY   MOSUNNY   41  39  93 E6        30.04F
CHANDLER       PTSUNNY   41  41 100 CALM      30.04S
$$

AZZ027-028-221600-
SOUTHWEST MARICOPA COUNTY AND PINAL COUNTY

CITY           SKY/WX    TMP DP  RH WIND       PRES   REMARKS
CASA GRANDE    PTSUNNY   41  37  87 MISG      30.03F
GILA BEND      MOSUNNY   44  40  86 SE5       30.04S
$$

AZZ503-504-507>509-221600-
SOUTHEAST ARIZONA

CITY           SKY/WX    TMP DP  RH WIND       PRES   REMARKS
TUCSON         MOSUNNY   42  36  79 SE7       30.05R
DAVIS-MONTHAN  MOSUNNY   41  37  87 SE8       30.03R
RYAN FIELD       N/A     39  39 100 S5        30.05R
NOGALES        MOSUNNY   36  32  85 N3        30.05R
SIERRA VISTA   CLOUDY    39  34  81 SE3       30.04F
DOUGLAS        SUNNY     33  30  88 NE5       30.04F WCI  29
SAFFORD        PTSUNNY   39  35  86 CALM      30.00R
$$

AZZ020-021-025-026-031-221600-
SOUTHWEST ARIZONA

CITY           SKY/WX    TMP DP  RH WIND       PRES   REMARKS
YUMA           MOSUNNY  N/A N/A N/A CALM      30.02F
$$

CAZ031-033-041-043-047-048-061-221600-
SOUTHERN CALIFORNIA

CITY           SKY/WX    TMP DP  RH WIND       PRES   REMARKS
DOWNTOWN L.A.  SUNNY     50  47  89 CALM      30.03S FOG
L.A. AIRPORT   MOSUNNY   53  50  89 E3        30.04S FOG
SAN DIEGO      MOSUNNY   54  50  86 CALM      30.05S
BURBANK        SUNNY     50  44  80 VRB5      30.03S
ONTARIO        MOSUNNY   50  44  80 CALM      30.04R
RIVERSIDE      SUNNY     48  44  86 SE3       30.04S
PALM SPRINGS   SUNNY     49  44  83 N8        30.05S
EL CENTRO NAS  MOSUNNY   46  42  86 SW5       30.03R
IMPERIAL       SUNNY     46  41  82 CALM      30.03R
BLYTHE         SUNNY     51  43  74 CALM      30.04S
NEEDLES        SUNNY     46  39  76 W7        30.04S
$$

NVZ020-UTZ003-221600-
SOUTHERN NEVADA-UTAH

CITY           SKY/WX    TMP DP  RH WIND       PRES   REMARKS
LAS VEGAS      MOSUNNY   47  37  68 CALM      30.04S
SALT LAKE CITY LGT RAIN  38  37  97 SE6       29.95F FOG     WCI  33
$$

NMZ009-TXZ055-221600-
NEW MEXICO-WEST TEXAS

CITY           SKY/WX    TMP DP  RH WIND       PRES   REMARKS
ALBUQUERQUE    MOSUNNY   34  29  82 SE8       29.91S WCI  27
EL PASO        MOSUNNY   48  32  53 S10       29.91F
$$


........................KEY........................
SKY/WX - SKY CONDITION/WEATHER
TMP    - TEMPERATURE IN FAHRENHEIT
DP     - DEW POINT IN FAHRENHEIT
RH     - RELATIVE HUMIDITY IN PERCENT
WIND   - DIRECTION AND SPEED IN MILES PER HOUR (MPH)
VRB    - VARIABLE WIND DIRECTION
PRES   - MEAN SEA LEVEL PRESSURE IN INCHES OF MERCURY
         F - FALLING PRESSURE   R - RISING PRESSURE
         S - STEADY PRESSURE
VSB    - VISIBILITY IN MILES
HX     - HEAT INDEX IN FAHRENHEIT
WCI    - WIND CHILL INDEX IN FAHRENHEIT
TC     - TEMPERATURE IN CELSIUS WHICH IS ALSO KNOWN AS
         TEMPERATURE IN CENTIGRADE
AFB    - AIR FORCE BASE
         LUKE AFB IS LUKE AIR FORCE BASE
         DAVIS-MONTHAN IS DAVIS-MONTHAN AIR FORCE BASE
NAS    - NAVAL AIR STATION
         EL CENTRO NAS IS EL CENTRO NAVAL AIR STATION
N/A    - NOT AVAILABLE


USA.gov is the U.S. government's official web portal to all federal, state and local government web resources and services.